Find Starlink 35303

NORAD ID: 65860 Int'l Des: 2025-223 Owner: SPXS Country: US Constellation: starlink operational
LEOCIRCULAR

当前视图

正在加载3D地球...

关于 Starlink 35303

正在加载描述...

即将过境

Passes for default location (London). Set your location on the main map for personalized predictions.

高度历史

Loading altitude history...

两行轨道根数

1 65860U 25223G 26146.58510867 .00025542 00000-0 76433-3 0 9992
2 65860 53.1607 292.2251 0001268 90.1385 269.9763 15.34406829 36132
Epoch: May 26, 2026 • Age: 8 hours

当前状态

高度 465.0 km
速度 7.64 km/s
星下点 37.19°N, 144.74°W
发射日期 Oct 3, 2025
运行时间 0.6 years
类型 internet

技术详情

分类 Payload
质量 575.00 kg
干质量 530.00 kg
总质量 575.00 kg
长度 0.30 m
直径 4.10 m
跨度 29.00 m
形状 Box + pan
制造商 SPXS
平台类型 Starlink V2MO
阶段状态 In Orbit
所有者/国家 SPXS/US

Most Searched